Simultaneous Nadir Overpasses (SNOs) Predictions

Prediction of SNOs between GOES-16 and LANDSAT-8 Satellite Orbit:

Table of predicted SNOs for the next 14.0 days since TLE Epoch: 10/31/2020
Index Date Time (GOES-16) GOES-16 Lat,Lon LANDSAT-8 Lat,Lon Distance(km) Time Diff (sec)
1 11/01/2020 15:12:55 -0.04, -75.18 0.01, -75.39 24.01 80
2 11/03/2020 15:03:23 -0.03, -75.18 -0.59, -72.43 312.89 80
3 11/04/2020 03:24:47 0.03, -75.16 -0.52, -77.62 280.13 80
4 11/06/2020 03:09:56 0.02, -75.16 0.15, -74.67 57.11 80
5 11/08/2020 02:57:44 0.02, -75.17 0.77, -71.70 394.58 80
6 11/08/2020 15:18:58 -0.02, -75.20 0.35, -76.85 188.49 80
7 11/10/2020 15:09:27 -0.01, -75.22 -0.27, -73.89 149.75 80
8 11/11/2020 03:30:50 0.01, -75.20 -0.84, -79.08 442.68 80
9 11/12/2020 14:57:16 -0.01, -75.24 -0.95, -70.94 488.46 80
10 11/13/2020 03:18:39 0.01, -75.22 -0.16, -76.13 103.86 80
